Time,TemperatureF,DewpointF,PressureIn,WindDirection,WindDirectionDegrees,WindSpeedMPH,WindSpeedGustMPH,Humidity,HourlyPrecipIn,Conditions,Clouds,dailyrainin,SolarRadiationWatts/m^2,SoftwareType,DateUTC
2013-12-10 19:29:00,9.3,2.1,30.30,South,180,2.0,2.0,72,0.00,,,0.00,0,Wunderground v.1.15,2013-12-11 01:29:00,
2013-12-10 19:30:00,9.3,2.1,30.30,South,180,2.0,19.0,72,0.00,,,0.00,0,Wunderground v.1.15,2013-12-11 01:30:00,
2013-12-10 19:33:00,9.3,2.1,30.31,South,180,2.0,19.0,72,0.00,,,0.00,0,Wunderground v.1.15,2013-12-11 01:33:00,
2013-12-10 19:34:00,9.3,2.1,30.31,South,180,2.0,19.0,72,0.00,,,0.00,0,Wunderground v.1.15,2013-12-11 01:34:00,
2013-12-10 19:37:00,9.4,2.2,30.31,South,180,2.0,19.0,72,0.00,,,0.00,0,Wunderground v.1.15,2013-12-11 01:37:00,
2013-12-10 19:38:00,9.4,2.2,30.31,South,180,2.0,19.0,72,0.00,,,0.00,0,Wunderground v.1.15,2013-12-11 01:38:00,
2013-12-10 19:39:00,9.4,2.2,30.31,South,180,2.0,2.0,72,0.00,,,0.00,0,Wunderground v.1.15,2013-12-11 01:39:00,
2013-12-10 19:40:00,9.4,2.2,30.31,South,180,3.0,3.0,72,0.00,,,0.00,0,Wunderground v.1.15,2013-12-11 01:40:00,
2013-12-10 19:41:00,9.4,2.2,30.31,South,180,3.0,3.0,72,0.00,,,0.00,0,Wunderground v.1.15,2013-12-11 01:41:00,
2013-12-10 19:43:00,9.4,2.2,30.31,South,182,3.0,5.0,72,0.00,,,0.00,0,Wunderground v.1.15,2013-12-11 01:43:00,
2013-12-10 19:46:00,9.5,2.3,30.31,South,182,3.0,5.0,72,0.00,,,0.00,0,Wunderground v.1.15,2013-12-11 01:46:00,
2013-12-10 19:47:00,9.5,2.3,30.31,South,182,3.0,5.0,72,0.00,,,0.00,0,Wunderground v.1.15,2013-12-11 01:47:00,
2013-12-10 19:48:00,9.5,2.3,30.31,South,186,3.0,5.0,72,0.00,,,0.00,0,Wunderground v.1.15,2013-12-11 01:48:00,
2013-12-10 19:51:00,9.6,2.4,30.31,SSE,168,3.0,5.0,72,0.00,,,0.00,0,Wunderground v.1.15,2013-12-11 01:51:00,
2013-12-10 19:55:00,9.7,2.5,30.31,South,173,4.0,5.0,72,0.00,,,0.00,0,Wunderground v.1.15,2013-12-11 01:55:00,
2013-12-10 19:56:00,9.7,2.5,30.31,South,173,4.0,5.0,72,0.00,,,0.00,0,Wunderground v.1.15,2013-12-11 01:56:00,
2013-12-10 19:57:00,9.7,2.5,30.31,South,173,4.0,5.0,72,0.00,,,0.00,0,Wunderground v.1.15,2013-12-11 01:57:00,
2013-12-10 19:59:00,9.8,2.6,30.31,South,173,3.0,3.0,72,0.00,,,0.00,0,Wunderground v.1.15,2013-12-11 01:59:00,
2013-12-10 20:01:00,9.8,2.6,30.31,South,173,2.0,3.0,72,0.00,,,0.00,0,Wunderground v.1.15,2013-12-11 02:01:00,
2013-12-10 20:03:00,9.8,2.6,30.31,South,173,2.0,3.0,72,0.00,,,0.00,0,Wunderground v.1.15,2013-12-11 02:03:00,
2013-12-10 20:04:00,9.8,2.6,30.31,South,176,2.0,5.0,72,0.00,,,0.00,0,Wunderground v.1.15,2013-12-11 02:04:00,
2013-12-10 20:06:00,9.8,2.6,30.31,South,177,2.0,5.0,72,0.00,,,0.00,0,Wunderground v.1.15,2013-12-11 02:06:00,
2013-12-10 20:07:00,9.8,2.6,30.31,South,177,2.0,5.0,72,0.00,,,0.00,0,Wunderground v.1.15,2013-12-11 02:07:00,
2013-12-10 20:08:00,9.9,2.7,30.31,South,186,2.0,6.0,72,0.00,,,0.00,0,Wunderground v.1.15,2013-12-11 02:08:00,
2013-12-10 20:09:00,9.9,2.7,30.31,South,183,2.0,6.0,72,0.00,,,0.00,0,Wunderground v.1.15,2013-12-11 02:09:00,
2013-12-10 20:10:00,9.9,2.7,30.31,SSW,196,3.0,3.0,72,0.00,,,0.00,0,Wunderground v.1.15,2013-12-11 02:10:00,
2013-12-10 20:13:00,10.0,2.8,30.31,South,184,3.0,4.0,72,0.00,,,0.00,0,Wunderground v.1.15,2013-12-11 02:13:00,
2013-12-10 20:14:00,10.0,2.8,30.31,South,184,3.0,4.0,72,0.00,,,0.00,0,Wunderground v.1.15,2013-12-11 02:14:00,
2013-12-10 20:16:00,10.0,2.8,30.31,South,182,3.0,4.0,72,0.00,,,0.00,0,Wunderground v.1.15,2013-12-11 02:16:00,
2013-12-10 20:19:00,10.0,2.8,30.31,South,182,3.0,4.0,72,0.00,,,0.00,0,Wunderground v.1.15,2013-12-11 02:19:00,
2013-12-10 20:21:00,10.0,2.8,30.32,South,182,3.0,3.0,72,0.00,,,0.00,0,Wunderground v.1.15,2013-12-11 02:21:00,
2013-12-10 20:23:00,10.1,2.9,30.32,South,182,2.0,4.0,72,0.00,,,0.00,0,Wunderground v.1.15,2013-12-11 02:23:00,
2013-12-10 20:25:00,10.1,2.9,30.32,South,182,2.0,4.0,72,0.00,,,0.00,0,Wunderground v.1.15,2013-12-11 02:25:00,
2013-12-10 20:26:00,10.1,2.9,30.32,South,188,2.0,5.0,72,0.00,,,0.00,0,Wunderground v.1.15,2013-12-11 02:26:00,
2013-12-10 20:28:00,10.1,2.9,30.32,South,188,2.0,6.0,72,0.00,,,0.00,0,Wunderground v.1.15,2013-12-11 02:28:00,
2013-12-10 20:30:00,10.1,2.9,30.32,South,181,2.0,4.0,72,0.00,,,0.00,0,Wunderground v.1.15,2013-12-11 02:30:00,
2013-12-10 20:31:00,10.2,3.0,30.32,South,182,2.0,4.0,72,0.00,,,0.00,0,Wunderground v.1.15,2013-12-11 02:31:00,
2013-12-10 20:33:00,10.2,3.0,30.33,South,181,3.0,4.0,72,0.00,,,0.00,0,Wunderground v.1.15,2013-12-11 02:33:00,
2013-12-10 20:35:00,10.2,3.0,30.33,South,181,3.0,4.0,72,0.00,,,0.00,0,Wunderground v.1.15,2013-12-11 02:35:00,
2013-12-10 20:37:00,10.3,3.1,30.33,South,185,3.0,4.0,72,0.00,,,0.00,0,Wunderground v.1.15,2013-12-11 02:37:00,
2013-12-10 20:39:00,10.3,3.4,30.33,South,185,3.0,4.0,73,0.00,,,0.00,0,Wunderground v.1.15,2013-12-11 02:39:00,
2013-12-10 20:40:00,10.3,3.4,30.33,South,183,3.0,3.0,73,0.00,,,0.00,0,Wunderground v.1.15,2013-12-11 02:40:00,
2013-12-10 20:41:00,10.3,3.4,30.33,South,183,3.0,3.0,73,0.00,,,0.00,0,Wunderground v.1.15,2013-12-11 02:41:00,
2013-12-10 20:42:00,10.3,3.4,30.33,South,183,3.0,3.0,73,0.00,,,0.00,0,Wunderground v.1.15,2013-12-11 02:42:00,
2013-12-10 20:43:00,10.3,3.4,30.33,South,183,3.0,4.0,73,0.00,,,0.00,0,Wunderground v.1.15,2013-12-11 02:43:00,
2013-12-10 20:45:00,10.3,3.4,30.33,South,183,3.0,4.0,73,0.00,,,0.00,0,Wunderground v.1.15,2013-12-11 02:45:00,
2013-12-10 20:47:00,10.4,3.5,30.33,South,183,2.0,4.0,73,0.00,,,0.00,0,Wunderground v.1.15,2013-12-11 02:47:00,
2013-12-10 20:49:00,10.4,3.5,30.33,South,183,2.0,4.0,73,0.00,,,0.00,0,Wunderground v.1.15,2013-12-11 02:49:00,
2013-12-10 20:50:00,10.4,3.5,30.33,South,183,2.0,2.0,73,0.00,,,0.00,0,Wunderground v.1.15,2013-12-11 02:50:00,
2013-12-10 20:51:00,10.4,3.5,30.33,South,183,2.0,2.0,73,0.00,,,0.00,0,Wunderground v.1.15,2013-12-11 02:51:00,
2013-12-10 20:54:00,10.4,3.5,30.33,South,183,2.0,2.0,73,0.00,,,0.00,0,Wunderground v.1.15,2013-12-11 02:54:00,
2013-12-10 20:57:00,10.4,3.5,30.33,South,183,2.0,3.0,73,0.00,,,0.00,0,Wunderground v.1.15,2013-12-11 02:57:00,
2013-12-10 20:58:00,10.4,3.5,30.33,South,183,2.0,3.0,73,0.00,,,0.00,0,Wunderground v.1.15,2013-12-11 02:58:00,
2013-12-10 21:00:00,10.4,3.8,30.33,South,183,1.0,2.0,74,0.00,,,0.00,0,Wunderground v.1.15,2013-12-11 03:00:00,
2013-12-10 21:02:00,10.4,3.8,30.33,South,183,1.0,2.0,74,0.00,,,0.00,0,Wunderground v.1.15,2013-12-11 03:02:00,
2013-12-10 21:03:00,10.4,3.8,30.33,South,183,1.0,2.0,74,0.00,,,0.00,0,Wunderground v.1.15,2013-12-11 03:03:00,
2013-12-10 21:04:00,10.4,3.8,30.33,South,183,1.0,2.0,74,0.00,,,0.00,0,Wunderground v.1.15,2013-12-11 03:04:00,
2013-12-10 21:05:00,10.4,3.8,30.33,South,183,1.0,2.0,74,0.00,,,0.00,0,Wunderground v.1.15,2013-12-11 03:05:00,
2013-12-10 21:08:00,10.5,3.8,30.33,South,188,2.0,5.0,74,0.00,,,0.00,0,Wunderground v.1.15,2013-12-11 03:08:00,
2013-12-10 21:11:00,10.5,3.8,30.33,South,188,2.0,2.0,74,0.00,,,0.00,0,Wunderground v.1.15,2013-12-11 03:11:00,
2013-12-10 21:13:00,10.6,3.9,30.33,South,188,2.0,2.0,74,0.00,,,0.00,0,Wunderground v.1.15,2013-12-11 03:13:00,
2013-12-10 21:16:00,10.6,3.9,30.33,South,188,2.0,2.0,74,0.00,,,0.00,0,Wunderground v.1.15,2013-12-11 03:16:00,
2013-12-10 21:17:00,10.6,3.9,30.33,South,188,2.0,2.0,74,0.00,,,0.00,0,Wunderground v.1.15,2013-12-11 03:17:00,
2013-12-10 21:18:00,10.7,4.0,30.33,South,188,2.0,2.0,74,0.00,,,0.00,0,Wunderground v.1.15,2013-12-11 03:18:00,
2013-12-10 21:20:00,10.7,4.0,30.33,South,188,2.0,2.0,74,0.00,,,0.00,0,Wunderground v.1.15,2013-12-11 03:20:00,
2013-12-10 21:21:00,10.7,4.0,30.33,South,188,2.0,2.0,74,0.00,,,0.00,0,Wunderground v.1.15,2013-12-11 03:21:00,
2013-12-10 21:22:00,10.7,4.0,30.33,South,188,2.0,2.0,74,0.00,,,0.00,0,Wunderground v.1.15,2013-12-11 03:22:00,
2013-12-10 21:23:00,10.7,4.0,30.33,South,188,2.0,2.0,74,0.00,,,0.00,0,Wunderground v.1.15,2013-12-11 03:23:00,
2013-12-10 21:25:00,10.7,4.0,30.33,South,187,2.0,4.0,74,0.00,,,0.00,0,Wunderground v.1.15,2013-12-11 03:25:00,
2013-12-10 21:27:00,10.8,4.1,30.33,South,187,2.0,4.0,74,0.00,,,0.00,0,Wunderground v.1.15,2013-12-11 03:27:00,
2013-12-10 21:29:00,10.8,4.1,30.33,South,187,3.0,4.0,74,0.00,,,0.00,0,Wunderground v.1.15,2013-12-11 03:29:00,
2013-12-10 21:32:00,10.9,4.2,30.33,South,187,3.0,5.0,74,0.00,,,0.00,0,Wunderground v.1.15,2013-12-11 03:32:00,
2013-12-10 21:34:00,10.9,4.2,30.33,South,187,3.0,5.0,74,0.00,,,0.00,0,Wunderground v.1.15,2013-12-11 03:34:00,
2013-12-10 21:35:00,10.9,4.2,30.33,South,187,3.0,5.0,74,0.00,,,0.00,0,Wunderground v.1.15,2013-12-11 03:35:00,
2013-12-10 21:36:00,10.9,4.2,30.33,South,187,3.0,5.0,74,0.00,,,0.00,0,Wunderground v.1.15,2013-12-11 03:36:00,
2013-12-10 21:37:00,10.9,4.2,30.33,South,187,3.0,5.0,74,0.00,,,0.00,0,Wunderground v.1.15,2013-12-11 03:37:00,
2013-12-10 21:39:00,11.0,4.3,30.33,South,186,3.0,5.0,74,0.00,,,0.00,0,Wunderground v.1.15,2013-12-11 03:39:00,
2013-12-10 21:40:00,11.0,4.3,30.33,South,187,3.0,3.0,74,0.00,,,0.00,0,Wunderground v.1.15,2013-12-11 03:40:00,
2013-12-10 21:41:00,11.0,4.3,30.33,South,186,3.0,3.0,74,0.00,,,0.00,0,Wunderground v.1.15,2013-12-11 03:41:00,
2013-12-10 21:43:00,11.0,4.3,30.33,South,186,3.0,3.0,74,0.00,,,0.00,0,Wunderground v.1.15,2013-12-11 03:43:00,
2013-12-10 21:45:00,11.0,4.6,30.33,South,186,3.0,3.0,75,0.00,,,0.00,0,Wunderground v.1.15,2013-12-11 03:45:00,
2013-12-10 21:47:00,11.1,4.7,30.33,South,186,3.0,3.0,75,0.00,,,0.00,0,Wunderground v.1.15,2013-12-11 03:47:00,
2013-12-10 21:48:00,11.1,4.7,30.33,South,187,3.0,3.0,75,0.00,,,0.00,0,Wunderground v.1.15,2013-12-11 03:48:00,
2013-12-10 21:49:00,11.1,4.7,30.33,South,186,2.0,3.0,75,0.00,,,0.00,0,Wunderground v.1.15,2013-12-11 03:49:00,
2013-12-10 21:52:00,11.2,4.8,30.33,South,187,2.0,2.0,75,0.00,,,0.00,0,Wunderground v.1.15,2013-12-11 03:52:00,
2013-12-10 21:54:00,11.2,4.8,30.33,South,187,2.0,3.0,75,0.00,,,0.00,0,Wunderground v.1.15,2013-12-11 03:54:00,
2013-12-10 21:55:00,11.2,4.8,30.33,South,186,2.0,3.0,75,0.00,,,0.00,0,Wunderground v.1.15,2013-12-11 03:55:00,
2013-12-10 21:57:00,11.2,5.1,30.34,South,186,2.0,3.0,76,0.00,,,0.00,0,Wunderground v.1.15,2013-12-11 03:57:00,
2013-12-10 21:58:00,11.2,4.8,30.34,WSW,245,2.0,5.0,75,0.00,,,0.00,0,Wunderground v.1.15,2013-12-11 03:58:00,
2013-12-10 22:01:00,11.3,5.2,30.34,WSW,244,2.0,2.0,76,0.00,,,0.00,0,Wunderground v.1.15,2013-12-11 04:01:00,
2013-12-10 22:02:00,11.3,5.2,30.34,WSW,244,2.0,2.0,76,0.00,,,0.00,0,Wunderground v.1.15,2013-12-11 04:02:00,
2013-12-10 22:03:00,11.3,5.2,30.34,WSW,244,2.0,2.0,76,0.00,,,0.00,0,Wunderground v.1.15,2013-12-11 04:03:00,
2013-12-10 22:04:00,11.3,5.2,30.34,WSW,244,2.0,2.0,76,0.00,,,0.00,0,Wunderground v.1.15,2013-12-11 04:04:00,
2013-12-10 22:06:00,11.4,5.3,30.34,WSW,244,2.0,5.0,76,0.00,,,0.00,0,Wunderground v.1.15,2013-12-11 04:06:00,
2013-12-10 22:07:00,11.4,5.3,30.34,WSW,240,2.0,5.0,76,0.00,,,0.00,0,Wunderground v.1.15,2013-12-11 04:07:00,
2013-12-10 22:09:00,11.4,5.3,30.34,WSW,240,2.0,5.0,76,0.00,,,0.00,0,Wunderground v.1.15,2013-12-11 04:09:00,
2013-12-10 22:10:00,11.4,5.3,30.34,WSW,240,2.0,2.0,76,0.00,,,0.00,0,Wunderground v.1.15,2013-12-11 04:10:00,
2013-12-10 22:13:00,11.4,5.3,30.34,WSW,240,2.0,2.0,76,0.00,,,0.00,0,Wunderground v.1.15,2013-12-11 04:13:00,
2013-12-10 22:14:00,11.4,5.6,30.34,WSW,240,2.0,2.0,77,0.00,,,0.00,0,Wunderground v.1.15,2013-12-11 04:14:00,
2013-12-10 22:18:00,11.5,5.7,30.34,SW,232,1.0,4.0,77,0.00,,,0.00,0,Wunderground v.1.15,2013-12-11 04:18:00,
2013-12-10 22:19:00,11.4,5.6,30.34,SW,232,1.0,4.0,77,0.00,,,0.00,0,Wunderground v.1.15,2013-12-11 04:19:00,
2013-12-10 22:22:00,11.5,5.7,30.34,SW,232,1.0,1.0,77,0.00,,,0.00,0,Wunderground v.1.15,2013-12-11 04:22:00,
2013-12-10 22:23:00,11.5,5.7,30.34,SW,232,1.0,1.0,77,0.00,,,0.00,0,Wunderground v.1.15,2013-12-11 04:23:00,
2013-12-10 22:24:00,11.5,5.7,30.34,SW,232,1.0,1.0,77,0.00,,,0.00,0,Wunderground v.1.15,2013-12-11 04:24:00,
2013-12-10 22:25:00,11.5,5.7,30.34,SW,232,1.0,1.0,77,0.00,,,0.00,0,Wunderground v.1.15,2013-12-11 04:25:00,
2013-12-10 22:30:00,11.5,6.0,30.34,SW,232,0.0,0.0,78,0.00,,,0.00,0,Wunderground v.1.15,2013-12-11 04:30:00,
2013-12-10 22:32:00,11.5,6.0,30.34,SW,232,0.0,0.0,78,0.00,,,0.00,0,Wunderground v.1.15,2013-12-11 04:32:00,
2013-12-10 22:33:00,11.5,6.0,30.34,SW,232,0.0,0.0,78,0.00,,,0.00,0,Wunderground v.1.15,2013-12-11 04:33:00,
2013-12-10 22:36:00,11.5,6.0,30.34,SW,232,0.0,0.0,78,0.00,,,0.00,0,Wunderground v.1.15,2013-12-11 04:36:00,
2013-12-10 22:38:00,11.5,6.2,30.34,SW,232,0.0,1.0,79,0.00,,,0.00,0,Wunderground v.1.15,2013-12-11 04:38:00,
2013-12-10 22:39:00,11.5,6.2,30.34,SW,232,0.0,1.0,79,0.00,,,0.00,0,Wunderground v.1.15,2013-12-11 04:39:00,
2013-12-10 22:41:00,11.5,6.2,30.35,SW,232,0.0,1.0,79,0.00,,,0.00,0,Wunderground v.1.15,2013-12-11 04:41:00,
2013-12-10 22:42:00,11.5,6.2,30.35,SW,232,0.0,1.0,79,0.00,,,0.00,0,Wunderground v.1.15,2013-12-11 04:42:00,
2013-12-10 22:43:00,11.5,6.2,30.35,SW,232,1.0,1.0,79,0.00,,,0.00,0,Wunderground v.1.15,2013-12-11 04:43:00,
2013-12-10 22:45:00,11.5,6.2,30.35,SW,232,1.0,1.0,79,0.00,,,0.00,0,Wunderground v.1.15,2013-12-11 04:45:00,
2013-12-10 22:49:00,11.5,6.2,30.35,SW,232,0.0,1.0,79,0.00,,,0.00,0,Wunderground v.1.15,2013-12-11 04:49:00,
2013-12-10 22:50:00,11.5,6.5,30.35,SW,232,0.0,0.0,80,0.00,,,0.00,0,Wunderground v.1.15,2013-12-11 04:50:00,
2013-12-10 22:52:00,11.5,6.5,30.35,SW,232,0.0,0.0,80,0.00,,,0.00,0,Wunderground v.1.15,2013-12-11 04:52:00,
2013-12-10 22:53:00,11.5,6.5,30.35,SW,232,0.0,0.0,80,0.00,,,0.00,0,Wunderground v.1.15,2013-12-11 04:53:00,
2013-12-10 22:55:00,11.5,6.5,30.35,SW,232,0.0,0.0,80,0.00,,,0.00,0,Wunderground v.1.15,2013-12-11 04:55:00,
2013-12-10 22:56:00,11.5,6.5,30.35,SW,232,0.0,0.0,80,0.00,,,0.00,0,Wunderground v.1.15,2013-12-11 04:56:00,
2013-12-10 22:57:00,11.4,6.4,30.35,SW,232,0.0,0.0,80,0.00,,,0.00,0,Wunderground v.1.15,2013-12-11 04:57:00,
2013-12-10 22:59:00,11.5,6.5,30.35,SW,232,0.0,0.0,80,0.00,,,0.00,0,Wunderground v.1.15,2013-12-11 04:59:00,
2013-12-10 23:00:00,11.5,6.5,30.35,SW,232,0.0,1.0,80,0.00,,,0.00,0,Wunderground v.1.15,2013-12-11 05:00:00,
2013-12-10 23:01:00,11.5,6.5,30.35,SW,232,0.0,1.0,80,0.00,,,0.00,0,Wunderground v.1.15,2013-12-11 05:01:00,
2013-12-10 23:02:00,11.4,6.4,30.35,SW,232,0.0,1.0,80,0.00,,,0.00,0,Wunderground v.1.15,2013-12-11 05:02:00,
2013-12-10 23:03:00,11.5,6.5,30.35,SW,232,0.0,1.0,80,0.00,,,0.00,0,Wunderground v.1.15,2013-12-11 05:03:00,
2013-12-10 23:04:00,11.5,6.5,30.35,SW,232,0.0,1.0,80,0.00,,,0.00,0,Wunderground v.1.15,2013-12-11 05:04:00,
2013-12-10 23:07:00,11.5,6.8,30.35,SW,232,1.0,1.0,81,0.00,,,0.00,0,Wunderground v.1.15,2013-12-11 05:07:00,
2013-12-10 23:08:00,11.5,6.8,30.35,SW,232,1.0,2.0,81,0.00,,,0.00,0,Wunderground v.1.15,2013-12-11 05:08:00,
2013-12-10 23:09:00,11.5,6.8,30.35,SW,232,1.0,2.0,81,0.00,,,0.00,0,Wunderground v.1.15,2013-12-11 05:09:00,
2013-12-10 23:10:00,11.5,6.8,30.35,SW,232,1.0,1.0,81,0.00,,,0.00,0,Wunderground v.1.15,2013-12-11 05:10:00,
2013-12-10 23:11:00,11.5,6.8,30.35,SW,232,1.0,1.0,81,0.00,,,0.00,0,Wunderground v.1.15,2013-12-11 05:11:00,
2013-12-10 23:14:00,11.5,6.8,30.35,SW,232,1.0,3.0,81,0.00,,,0.00,0,Wunderground v.1.15,2013-12-11 05:14:00,
2013-12-10 23:15:00,11.5,6.8,30.35,SW,232,1.0,3.0,81,0.00,,,0.00,0,Wunderground v.1.15,2013-12-11 05:15:00,
2013-12-10 23:16:00,11.6,6.9,30.35,SW,232,1.0,3.0,81,0.00,,,0.00,0,Wunderground v.1.15,2013-12-11 05:16:00,
2013-12-10 23:18:00,11.6,6.9,30.35,SW,232,1.0,3.0,81,0.00,,,0.00,0,Wunderground v.1.15,2013-12-11 05:18:00,
2013-12-10 23:21:00,11.6,7.2,30.35,SW,232,1.0,2.0,82,0.00,,,0.00,0,Wunderground v.1.15,2013-12-11 05:21:00,
2013-12-10 23:23:00,11.6,7.2,30.35,SW,232,1.0,2.0,82,0.00,,,0.00,0,Wunderground v.1.15,2013-12-11 05:23:00,
2013-12-10 23:24:00,11.6,7.2,30.35,SW,232,1.0,2.0,82,0.00,,,0.00,0,Wunderground v.1.15,2013-12-11 05:24:00,
2013-12-10 23:26:00,11.6,7.2,30.36,SW,232,1.0,2.0,82,0.00,,,0.00,0,Wunderground v.1.15,2013-12-11 05:26:00,
2013-12-10 23:29:00,11.6,7.2,30.36,SW,232,1.0,2.0,82,0.00,,,0.00,0,Wunderground v.1.15,2013-12-11 05:29:00,
2013-12-10 23:32:00,11.7,7.3,30.36,SW,232,1.0,2.0,82,0.00,,,0.00,0,Wunderground v.1.15,2013-12-11 05:32:00,
2013-12-10 23:33:00,11.7,7.3,30.36,SW,232,1.0,2.0,82,0.00,,,0.00,0,Wunderground v.1.15,2013-12-11 05:33:00,
2013-12-10 23:34:00,11.7,7.3,30.36,SW,232,1.0,2.0,82,0.00,,,0.00,0,Wunderground v.1.15,2013-12-11 05:34:00,
2013-12-10 23:37:00,11.7,7.3,30.36,SW,230,1.0,2.0,82,0.00,,,0.00,0,Wunderground v.1.15,2013-12-11 05:37:00,
2013-12-10 23:38:00,11.7,7.5,30.36,SW,230,2.0,2.0,83,0.00,,,0.00,0,Wunderground v.1.15,2013-12-11 05:38:00,
2013-12-10 23:40:00,11.7,7.5,30.36,SW,230,1.0,1.0,83,0.00,,,0.00,0,Wunderground v.1.15,2013-12-11 05:40:00,
2013-12-10 23:41:00,11.7,7.5,30.36,SW,230,1.0,1.0,83,0.00,,,0.00,0,Wunderground v.1.15,2013-12-11 05:41:00,
2013-12-10 23:46:00,11.8,7.6,30.36,SW,229,2.0,4.0,83,0.00,,,0.00,0,Wunderground v.1.15,2013-12-11 05:46:00,
2013-12-10 23:47:00,11.8,7.6,30.36,South,176,2.0,6.0,83,0.00,,,0.00,0,Wunderground v.1.15,2013-12-11 05:47:00,
2013-12-10 23:50:00,11.8,7.6,30.36,South,176,2.0,4.0,83,0.00,,,0.00,0,Wunderground v.1.15,2013-12-11 05:50:00,
2013-12-10 23:52:00,11.8,7.6,30.36,South,176,3.0,4.0,83,0.00,,,0.00,0,Wunderground v.1.15,2013-12-11 05:52:00,
2013-12-10 23:53:00,11.8,7.6,30.36,South,176,3.0,4.0,83,0.00,,,0.00,0,Wunderground v.1.15,2013-12-11 05:53:00,
2013-12-10 23:55:00,11.8,7.6,30.36,South,176,3.0,4.0,83,0.00,,,0.00,0,Wunderground v.1.15,2013-12-11 05:55:00,
2013-12-10 23:56:00,11.8,7.6,30.36,South,176,3.0,4.0,83,0.00,,,0.00,0,Wunderground v.1.15,2013-12-11 05:56:00,
2013-12-10 23:57:00,11.8,7.6,30.36,South,176,3.0,4.0,83,0.00,,,0.00,0,Wunderground v.1.15,2013-12-11 05:57:00,
2013-12-10 23:58:00,11.8,7.6,30.36,South,176,3.0,4.0,83,0.00,,,0.00,0,Wunderground v.1.15,2013-12-11 05:58:00,